Regional Weather Roundup
Issued by NWS

Home | Current Version | Previous Version | Text Only | Print | Product List | Glossary On
Versions: 1 2 3 4 5 6 7 8 9 10 11 12 13 14 15 16 17 18 19 20 21 22 23 24 25 26 27 28 29 30 31 32 33 34 35 36 37 38 39 40 41 42 43 44 45 46 47 48 49 50
000
ASUS46 KPQR 271510
RWROR

OREGON REGIONAL WEATHER ROUNDUP
NATIONAL WEATHER SERVICE PORTLAND OR
800 AM PDT FRI MAR 27 2015

NOTE: "FAIR" INDICATES FEW OR NO CLOUDS BELOW 12,000 FEET WITH
NO SIGNIFICANT WEATHER AND/OR OBSTRUCTIONS TO VISIBILITY.

ORZ001>013-271600-
NORTHWEST OREGON


CITY           SKY/WX    TMP DP  RH WIND       PRES   REMARKS
ASTORIA        CLOUDY    49  48  97 S3        30.05R FOG
NEWPORT        CLOUDY    52  52 100 SW7       30.12R FOG
PORTLAND       PTCLDY    49  48  97 CALM      30.07R
VANCOUVER WA   FOG       47  46  97 CALM      30.06S VSB 1/4
SCAPPOOSE      CLOUDY    44  43  96 CALM      30.06R
HILLSBORO      FOG       44  44 100 CALM      30.06R VSB<1/4
AURORA         MOCLDY    48  47  96 CALM      30.07R
MCMINNVILLE    FOG       48  47  96 CALM      30.07R VSB<1/4
SALEM          FOG       48  47  96 CALM      30.05S VSB 1/2
CORVALLIS      CLOUDY    48  45  87 CALM      30.07S VSB<1/4
EUGENE         PTCLDY    47  45  93 S6        30.08R
$$

ORZ021-028-271600-
SOUTHWEST OREGON


CITY           SKY/WX    TMP DP  RH WIND       PRES   REMARKS
NORTH BEND     CLOUDY    52  52 100 SE5       30.14R
BROOKINGS      FOG       50  50 100 CALM      30.15R VSB 1
ROSEBURG       FOG       49  48  97 CALM      30.09R VSB<1/4
SEXTON SUMMIT  CLEAR     55  44  66 S10       30.13R
MEDFORD        CLEAR     49  45  86 CALM      30.11S
$$

ORZ014>016-041-271600-
COLUMBIA GORGE


CITY           SKY/WX    TMP DP  RH WIND       PRES   REMARKS
TROUTDALE      CLEAR     48  45  89 CALM      30.06R
THE DALLES     CLOUDY    47  44  90 CALM      30.08S
$$

ORZ029>031-041-044-049-050-061>064-502-503-505>511-271600-
EASTERN OREGON


CITY           SKY/WX    TMP DP  RH WIND       PRES   REMARKS
REDMOND        SUNNY     47  41  80 SE3       30.11S
BEND           SUNNY     46  39  76 SE5       30.12S
PRINEVILLE     SUNNY     46  43  87 CALM      30.13S
KLAMATH FALLS  SUNNY     40  36  86 CALM      30.19R
LAKEVIEW       SUNNY     37  34  87 CALM      30.24S
HERMISTON      SUNNY     47  45  93 S5        30.07S
PENDLETON      SUNNY     49  45  86 NW3       30.07R
JOHN DAY       SUNNY     52  41  68 SE8       30.17S
MEACHAM        PTSUNNY   46  42  86 CALM      30.14R
LA GRANDE      SUNNY     55  37  50 SE6G21    30.15S
BAKER CITY     FOG       37  37 100 CALM      30.21S VSB 1
BURNS          SUNNY     42  37  82 CALM      30.21S
ROME             N/A     44  32  62 CALM      30.22S
ONTARIO        SUNNY     40  37  89 CALM      30.26R
$$


USA.gov is the U.S. government's official web portal to all federal, state and local government web resources and services.